User: anonymous   Login
Location: El Águila
(10.4167°N, 66.7167°W)
Time: 07:41:29
(UTC+00:00)
Language:

CZ-3C R/B - Orbit

View from above orbital plane
View from above orbital plane
View from above satellite
View from above satellite

Ground track
Ground track

The orbit data is extracted from the following two-line orbital elements,

1 36288U 10001B   23333.36305801  .00004422  00000-0  18216-2 0  9991
2 36288  20.3725  10.2879 7040935 103.2230 337.6355  2.57462979123643
Epoch (UTC): 29 November 2023 08:42:48
Eccentricity: 0.7040935
inclination: 20.3725°
perigee height: 276 km
apogee height: 31941 km
right ascension of ascending node: 10.2879°
argument of perigee: 103.2230°
revolutions per day: 2.57462979
mean anomaly at epoch: 337.6355°
orbit number at epoch: 12364

The dashed part of the orbit path shows where the satellite is in the earth's shadow,  

DLR